Location: Nicosia
(35.1670°N, 33.3670°E)
Time: 21:08:15
(UTC+02:00)

Hubble Space Telescope - Pass Details

Date: 01 December 2023
Orbit: 516 x 519 km, 28.5° (Epoch: 27 February)

Event Time Altitude Azimuth Distance (km) Brightness Sun altitude
Rises 18:42:41 0° 259° (W) 2,621 5.7 -25.7°
Reaches altitude 10° 18:45:26 10° 241° (WSW) 1,735 4.2 -26.2°
Maximum altitude 18:48:13 18° 197° (SSW) 1,306 2.9 -26.8°
Enters shadow 18:48:19 18° 195° (SSW) 1,306 2.9 -26.8°
